Temp
21 20 20 20 21 21 21 20 20 20 20 19 19 19 18 18 18 18 17 16 16 16 16 16 15 15 15 15 16 15 14 14 14 14 15 15 15 15 15 15 15 15
21 20 20 20 20 20 21 21 20 20 20 20 20 19 18 18 18 18 17 17 16 16 16 16 15 15 15 15 15 15 14 14 14 14 15 15 15 15 15 15 15 15
21 20 20 20 20 20 21 21 21 20 20 20 20 19 18 18 18 18 17 17 16 16 16 16 15 15 16 15 14 15 14 14 14 14 14 15 15 15 14 14 15 15
21 20 20 21 21 20 21 22 21 21 21 20 19 19 18 18 18 17 17 17 17 16 16 16 15 15 15 15 15 14 14 14 14 14 14 15 15 15 15 14 14 14
21 20 21 21 21 21 21 22 22 21 21 20 19 19 18 18 18 17 17 17 18 17 16 16 15 15 15 15 15 14 14 14 14 14 14 14 14 15 15 14 14 14
21 21 22 21 21 22 22 22 22 21 21 20 20 19 19 19 19 18 18 18 18 17 16 15 15 15 15 14 14 15 14 14 15 14 14 14 14 14 14 14 14 14
22 22 22 22 22 22 22 22 22 21 21 20 20 19 19 19 20 20 19 19 18 17 16 15 15 15 15 14 14 15 15 15 15 15 14 14 14 14 14 14 14 14
23 23 22 22 22 22 22 23 22 21 21 21 20 20 19 19 19 20 20 19 18 17 16 16 15 16 15 14 14 15 15 15 14 14 14 14 14 14 14 14 14 14
23 23 23 23 22 22 23 23 22 22 21 21 20 20 19 19 19 19 19 19 18 17 17 17 16 16 15 15 14 15 15 15 15 14 14 14 14 14 14 14 14 14
23 23 23 23 23 23 23 23 22 22 21 20 20 19 19 19 18 19 18 18 18 18 18 17 17 17 16 15 15 15 15 15 15 14 14 14 14 14 14 14 14 14
24 24 23 23 24 23 23 22 21 20 20 20 20 19 19 19 19 19 19 18 18 18 18 17 18 18 17 15 15 15 16 16 15 14 14 14 14 14 14 14 14 14
25 24 24 24 23 22 21 20 19 20 21 21 20 20 20 20 20 19 19 19 19 18 17 17 18 18 17 16 15 16 16 16 15 15 14 14 14 14 14 15 15 15
25 25 24 23 22 21 20 20 21 22 22 21 21 21 20 20 20 20 19 19 19 18 17 17 17 17 17 16 16 16 16 15 15 15 14 14 14 15 15 15 15 15
24 23 23 21 21 21 20 21 22 22 22 22 22 21 20 20 20 20 20 19 19 18 17 17 17 17 16 16 16 16 15 15 15 15 15 14 14 15 15 15 15 14
21 21 20 21 22 20 19 20 22 22 23 23 22 22 21 20 19 19 19 19 19 18 17 17 17 16 16 16 16 16 15 15 15 15 15 15 14 14 15 15 15 15
20 20 21 21 22 20 19 21 22 22 22 22 22 22 21 19 19 19 19 19 19 18 17 17 16 16 17 16 15 15 15 15 15 15 15 15 15 14 15 15 15 15
20 21 21 20 20 20 21 21 21 21 21 21 21 21 20 19 19 18 19 19 19 17 17 16 16 16 17 17 16 15 15 15 15 15 15 15 15 15 15 15 15 15
20 21 20 20 21 21 22 21 21 20 20 20 20 20 19 19 18 18 18 19 18 17 16 16 16 16 16 17 16 15 15 16 15 14 14 15 15 15 15 15 15 15
20 21 20 20 21 22 21 21 20 19 19 19 19 19 19 18 18 17 18 18 17 16 16 16 16 15 16 16 16 16 16 16 15 14 14 14 15 15 14 14 15 15
21 22 21 20 21 21 20 20 20 19 19 18 18 18 18 18 18 17 17 17 16 16 16 16 14 15 16 15 15 15 16 16 15 14 14 14 14 14 14 15 15 15
21 22 21 20 21 20 20 20 19 19 18 18 18 18 18 18 17 17 17 16 15 15 16 15 14 15 15 15 15 15 15 15 15 14 14 14 14 14 14 15 15 14
22 22 21 21 20 20 20 19 19 18 18 17 17 18 18 18 17 16 16 15 15 15 15 14 14 14 15 15 15 15 15 14 14 14 14 14 14 14 14 14 14 15
22 21 21 20 19 19 19 19 18 18 18 17 17 17 17 17 15 15 15 15 14 14 14 14 14 14 15 15 15 15 14 14 14 14 14 14 14 14 14 14 14 14
22 21 20 20 19 18 18 17 17 17 17 17 16 16 16 15 14 14 14 14 14 14 14 14 15 15 15 15 15 15 14 14 14 14 14 14 14 14 13 13 14 14
21 20 19 19 18 18 17 17 16 16 16 16 15 15 15 14 13 13 13 14 14 14 14 15 15 15 15 15 15 15 14 14 14 14 14 14 14 13 13 13 13 14
21 19 18 17 17 17 17 16 16 16 16 16 15 15 14 14 13 13 13 14 14 14 14 14 14 14 15 15 15 15 14 14 14 14 15 14 13 12 13 13 13 13
Height
1534 1536 1537 1539 1541 1542 1544 1545 1546 1547 1549 1550 1551 1552 1553 1553 1553 1554 1556 1556 1557 1557 1557 1557 1558 1558 1559 1559 1560 1560 1561 1562 1563 1564 1564 1564 1565 1565 1565 1565 1565 1565
1531 1533 1535 1536 1538 1540 1541 1542 1544 1546 1547 1549 1550 1550 1551 1552 1552 1553 1554 1555 1555 1555 1556 1556 1556 1557 1557 1558 1559 1559 1560 1561 1562 1563 1563 1564 1564 1565 1565 1565 1565 1564
1528 1530 1532 1534 1536 1537 1538 1541 1543 1544 1546 1547 1548 1549 1549 1550 1551 1552 1553 1553 1554 1554 1555 1555 1555 1555 1556 1557 1558 1558 1559 1560 1561 1562 1563 1563 1563 1564 1564 1564 1564 1564
1525 1527 1530 1532 1534 1535 1537 1539 1540 1541 1543 1545 1546 1547 1548 1549 1550 1550 1551 1552 1552 1553 1553 1554 1554 1554 1555 1556 1556 1557 1558 1558 1559 1561 1561 1561 1562 1562 1562 1563 1563 1563
1522 1525 1527 1529 1531 1532 1534 1535 1537 1538 1540 1542 1544 1545 1546 1548 1549 1549 1550 1550 1550 1551 1552 1552 1552 1553 1554 1554 1555 1556 1557 1558 1558 1559 1559 1560 1560 1560 1561 1561 1561 1562
1520 1522 1525 1527 1528 1529 1531 1532 1534 1536 1538 1540 1541 1543 1544 1545 1546 1547 1548 1549 1549 1549 1550 1551 1551 1552 1552 1553 1554 1555 1555 1557 1557 1557 1557 1557 1558 1558 1558 1559 1559 1559
1517 1519 1522 1523 1524 1526 1528 1529 1531 1533 1536 1537 1538 1540 1541 1541 1542 1543 1545 1546 1547 1548 1549 1550 1550 1550 1551 1552 1553 1553 1554 1555 1556 1556 1556 1556 1556 1556 1556 1556 1556 1557
1514 1516 1518 1519 1521 1522 1524 1525 1527 1530 1532 1534 1536 1538 1539 1539 1540 1541 1542 1543 1545 1547 1548 1549 1549 1549 1550 1551 1551 1552 1553 1553 1554 1554 1554 1554 1554 1554 1554 1554 1554 1555
1510 1511 1513 1515 1517 1518 1520 1522 1524 1527 1530 1533 1536 1537 1538 1539 1539 1540 1540 1541 1542 1544 1545 1546 1547 1548 1549 1549 1550 1550 1551 1552 1552 1552 1552 1553 1553 1553 1553 1553 1553 1553
1506 1506 1508 1511 1513 1515 1517 1519 1523 1526 1530 1534 1537 1539 1539 1538 1538 1539 1539 1539 1540 1541 1541 1542 1543 1545 1547 1548 1548 1549 1549 1550 1550 1550 1550 1551 1551 1551 1551 1552 1552 1551
1500 1501 1504 1506 1508 1511 1515 1520 1525 1529 1532 1535 1537 1538 1537 1536 1535 1536 1536 1535 1536 1538 1539 1539 1539 1541 1544 1546 1546 1546 1547 1548 1548 1548 1548 1548 1548 1549 1549 1549 1549 1549
1496 1498 1500 1503 1507 1512 1517 1522 1526 1527 1528 1530 1532 1532 1531 1530 1529 1529 1530 1531 1531 1532 1535 1537 1537 1537 1539 1542 1543 1544 1545 1546 1546 1546 1546 1546 1546 1546 1546 1546 1546 1546
1492 1495 1497 1501 1507 1510 1511 1516 1520 1522 1523 1525 1526 1526 1524 1524 1523 1522 1523 1525 1526 1527 1528 1531 1533 1534 1535 1537 1540 1542 1543 1543 1544 1544 1544 1544 1544 1544 1544 1544 1544 1544
1490 1493 1494 1498 1502 1500 1503 1512 1518 1517 1517 1516 1515 1514 1513 1514 1514 1515 1517 1520 1521 1522 1523 1525 1527 1528 1529 1532 1535 1539 1541 1541 1542 1542 1543 1543 1542 1542 1542 1541 1541 1541
1487 1489 1490 1494 1497 1495 1500 1509 1511 1506 1504 1503 1502 1504 1506 1508 1509 1511 1515 1517 1517 1518 1519 1520 1521 1521 1523 1527 1531 1534 1537 1538 1539 1540 1541 1541 1540 1539 1539 1539 1538 1538
1483 1484 1486 1490 1492 1492 1495 1499 1498 1495 1495 1496 1497 1500 1503 1505 1505 1507 1510 1512 1512 1513 1513 1515 1516 1516 1518 1523 1526 1529 1533 1535 1536 1537 1538 1537 1537 1536 1536 1536 1536 1536
1479 1481 1484 1485 1487 1489 1489 1490 1490 1491 1492 1493 1494 1497 1499 1499 1500 1501 1504 1506 1506 1507 1508 1510 1512 1512 1514 1518 1520 1524 1528 1531 1532 1534 1534 1534 1534 1533 1533 1533 1533 1533
1476 1477 1480 1480 1482 1484 1485 1485 1486 1487 1488 1489 1490 1492 1493 1494 1495 1496 1499 1501 1502 1502 1503 1506 1508 1509 1512 1515 1516 1518 1523 1527 1529 1530 1530 1531 1530 1530 1530 1530 1530 1530
1473 1473 1475 1476 1478 1480 1482 1482 1483 1483 1483 1485 1486 1487 1488 1490 1491 1492 1494 1497 1498 1499 1500 1502 1504 1506 1510 1513 1514 1516 1520 1523 1525 1526 1527 1528 1527 1527 1528 1527 1527 1527
1469 1470 1472 1473 1474 1476 1478 1479 1480 1480 1481 1482 1482 1483 1484 1485 1486 1488 1489 1492 1494 1497 1499 1500 1501 1505 1508 1510 1512 1514 1517 1519 1522 1523 1524 1524 1524 1524 1524 1524 1524 1524
1466 1467 1468 1469 1471 1472 1474 1476 1477 1477 1478 1479 1479 1480 1480 1481 1483 1484 1486 1488 1492 1495 1498 1499 1500 1504 1508 1509 1510 1513 1515 1516 1518 1520 1521 1521 1520 1521 1521 1520 1520 1519
1462 1464 1466 1467 1468 1469 1470 1471 1473 1474 1475 1476 1476 1477 1477 1478 1480 1481 1482 1485 1490 1492 1494 1496 1499 1502 1506 1507 1509 1511 1512 1513 1515 1517 1518 1518 1518 1517 1517 1516 1516 1516
1460 1462 1463 1464 1465 1466 1466 1467 1469 1470 1471 1472 1473 1473 1474 1475 1476 1476 1478 1483 1487 1489 1492 1495 1497 1500 1503 1505 1507 1509 1510 1511 1512 1513 1515 1515 1515 1515 1515 1513 1513 1513
1458 1459 1460 1462 1462 1463 1464 1465 1466 1467 1468 1469 1470 1470 1471 1473 1474 1474 1477 1481 1484 1486 1490 1493 1495 1497 1500 1503 1504 1506 1507 1508 1509 1510 1511 1512 1512 1513 1513 1511 1510 1510
1455 1457 1458 1459 1459 1460 1461 1463 1464 1464 1465 1467 1467 1468 1469 1470 1471 1474 1477 1480 1482 1486 1489 1492 1493 1495 1498 1500 1502 1503 1504 1506 1507 1509 1510 1510 1510 1510 1510 1509 1507 1507
1452 1454 1455 1456 1457 1458 1459 1461 1462 1462 1463 1464 1465 1466 1467 1469 1471 1474 1477 1479 1482 1485 1488 1490 1491 1493 1495 1497 1499 1501 1503 1504 1506 1507 1508 1507 1506 1507 1507 1505 1504 1504
Wind_Speed
33 26 22 24 25 26 26 24 22 20 17 15 14 13 12 13 16 16 14 11 10 10 12 12 10 10 10 11 11 11 9 8 8 9 9 9 8 8 8 8 8 8
34 28 23 23 23 25 27 26 23 21 18 17 17 15 14 16 18 17 15 13 11 11 13 13 11 10 11 11 11 10 10 9 9 9 10 9 9 9 9 9 9 10
36 30 24 23 23 24 25 25 24 21 19 18 18 18 18 18 18 17 15 14 13 13 13 13 12 12 11 12 12 11 10 10 9 9 10 10 10 10 10 10 10 11
36 31 28 27 26 25 26 26 26 25 22 20 19 19 19 18 18 17 16 15 14 14 14 13 13 13 12 11 12 11 11 10 10 10 10 10 10 11 11 11 11 11
35 30 31 33 29 28 29 28 29 28 25 23 21 20 19 18 18 17 17 17 16 15 15 14 14 14 13 12 12 11 11 10 10 11 11 11 11 12 12 12 12 12
37 33 34 34 30 31 33 32 31 29 27 25 22 20 18 18 18 18 18 17 16 16 15 15 15 14 13 13 13 12 11 10 10 11 12 12 12 12 12 12 12 12
40 38 36 35 33 33 34 33 33 31 28 26 24 21 20 20 19 18 18 19 18 17 16 16 16 16 15 14 14 14 13 11 12 12 13 13 12 12 12 12 12 12
39 39 38 38 37 35 35 35 35 32 30 28 25 23 22 21 20 18 19 20 18 17 17 17 17 17 16 15 15 15 13 12 12 13 14 14 13 12 11 11 11 12
40 40 40 40 40 38 36 37 36 33 32 29 24 23 23 22 21 20 20 20 19 17 18 19 18 17 17 17 16 15 15 13 13 13 14 13 13 12 11 11 12 13
42 43 42 41 42 40 38 38 36 33 31 27 23 23 24 22 20 21 22 22 20 19 20 19 18 18 18 18 17 17 17 16 15 14 14 13 13 13 12 12 12 13
44 44 43 43 43 43 40 34 28 27 27 26 24 25 26 24 22 24 25 24 22 22 22 20 19 19 20 19 18 19 19 18 15 15 15 14 14 14 13 13 14 15
44 44 44 44 43 38 32 26 24 27 30 30 30 31 31 29 28 28 29 28 25 23 23 21 20 20 20 20 20 20 20 17 16 15 15 16 15 15 15 15 15 16
44 44 44 42 40 37 34 32 33 34 34 34 36 37 36 35 34 33 32 29 26 25 24 21 20 21 19 19 20 21 20 17 16 16 17 17 17 16 16 15 16 16
40 39 39 36 37 41 39 34 35 37 38 41 43 44 43 42 42 40 36 31 28 27 25 23 23 22 19 18 19 20 19 18 17 17 18 19 19 18 17 17 17 17
30 31 33 33 36 39 34 29 35 43 47 49 50 49 46 43 43 42 36 31 30 29 27 26 26 23 18 18 19 19 19 18 18 18 18 20 21 19 19 19 19 19
26 32 34 33 35 36 33 32 37 44 48 52 53 51 47 43 43 43 39 35 33 32 32 30 28 24 21 20 19 18 18 18 19 19 19 20 22 22 21 20 19 19
25 32 32 31 32 32 32 32 33 38 44 50 52 50 48 46 44 44 42 39 37 36 36 34 31 27 26 25 23 20 20 19 20 21 20 20 22 23 22 21 20 19
21 27 27 28 28 24 23 24 26 30 37 45 51 50 48 47 46 44 43 42 41 40 38 35 32 29 28 28 28 25 23 21 22 23 22 21 22 23 23 22 21 20
19 25 25 25 23 18 17 19 21 24 29 38 48 51 50 48 46 46 45 42 41 41 38 35 32 29 28 29 30 28 25 25 26 24 22 23 24 24 24 23 23 23
16 20 20 21 20 18 18 19 20 22 25 32 43 50 51 50 47 47 46 42 40 39 35 32 30 27 27 28 28 27 28 28 28 26 24 26 26 26 26 25 26 27
14 14 16 19 19 18 20 20 20 21 23 29 38 44 49 52 50 48 46 42 39 35 33 32 28 25 27 28 26 26 29 29 28 27 27 28 28 28 28 27 28 30
11 11 13 16 18 19 21 21 20 21 23 29 34 37 44 50 50 48 46 41 36 34 33 32 26 22 27 30 27 28 29 28 27 28 28 28 29 30 30 30 31 32
9 10 12 14 16 18 20 21 21 22 25 30 33 35 40 45 44 44 44 39 37 35 32 29 24 23 28 31 29 31 30 26 27 29 29 29 32 32 30 29 29 28
9 9 10 12 14 16 17 18 20 21 24 30 35 38 40 41 40 39 38 37 37 35 29 25 24 24 28 30 30 33 32 27 27 28 29 31 34 32 28 28 27 26
8 8 10 11 12 14 14 15 18 20 21 25 32 37 39 38 37 37 36 35 34 31 26 24 24 26 29 30 31 33 32 28 27 27 29 33 32 27 27 27 26 25
7 8 9 9 10 13 13 13 16 19 19 21 26 33 35 33 31 31 32 31 29 26 24 23 23 26 29 29 30 31 28 26 26 27 31 33 27 25 26 26 23 20
Wind_Direction
234 231 229 229 227 228 230 232 234 233 231 235 240 241 237 247 257 251 238 229 223 222 230 231 223 218 220 222 220 215 212 212 214 224 233 236 241 243 247 251 250 252
234 230 227 230 230 231 232 233 234 234 235 238 242 245 249 257 260 254 246 239 231 231 238 234 224 221 220 219 222 219 215 217 217 225 240 246 250 252 254 259 261 266
234 232 228 228 231 234 234 234 236 237 237 237 243 251 258 260 257 252 248 244 239 238 238 231 223 225 225 219 222 222 220 226 223 226 242 250 253 255 257 259 262 269
235 232 231 234 235 236 236 235 238 241 239 237 244 253 257 257 254 250 249 247 244 239 237 232 222 224 231 225 223 222 219 229 231 228 239 249 254 258 260 262 262 263
234 231 235 241 239 238 240 239 240 243 242 241 247 253 255 255 252 250 250 250 249 243 238 235 225 222 228 227 224 224 221 229 238 237 240 246 251 258 262 262 263 264
235 235 239 240 238 241 243 242 242 243 242 243 246 249 252 253 251 250 251 252 251 245 236 232 229 223 224 228 229 229 226 228 238 244 246 247 247 251 254 255 258 260
236 238 239 238 239 242 243 243 244 243 242 241 241 244 247 247 247 247 253 255 249 243 236 232 233 228 222 225 230 233 235 236 239 242 244 247 246 245 245 247 250 253
239 239 239 240 242 240 240 242 243 242 242 239 239 242 245 247 248 248 252 251 243 244 247 240 238 236 227 223 228 234 237 240 243 245 246 246 247 246 244 244 248 253
240 241 240 241 242 240 240 242 241 241 241 239 239 243 247 250 250 248 247 243 241 252 257 247 241 241 235 227 229 235 238 239 241 244 247 247 246 247 246 248 254 259
239 241 241 241 241 242 242 242 242 243 242 241 243 249 254 255 251 250 245 240 247 257 253 245 242 243 240 232 231 240 245 246 244 243 245 245 246 247 247 250 256 259
240 242 243 242 242 244 245 243 239 240 243 245 247 250 253 252 251 252 247 241 248 254 248 244 243 242 240 234 235 246 252 253 251 246 244 245 246 248 249 251 253 255
241 242 244 246 246 245 240 234 231 238 245 247 246 248 248 246 244 245 245 245 246 244 242 243 240 236 235 235 240 250 254 255 255 250 245 246 247 248 252 254 255 256
244 246 246 245 246 243 235 233 238 242 245 246 247 247 244 243 242 239 240 245 243 235 234 234 231 230 232 235 241 249 253 254 257 255 251 250 250 250 252 255 259 259
244 245 242 237 241 240 233 235 243 245 244 244 243 242 240 240 241 238 237 239 237 232 229 227 225 223 223 229 238 246 251 255 259 261 259 257 257 256 255 255 258 258
237 236 236 238 244 241 231 235 244 243 241 241 241 241 240 239 239 239 238 238 236 230 225 223 219 212 211 223 231 240 250 256 262 265 264 263 263 262 259 257 257 258
235 240 242 248 251 247 245 250 249 242 239 240 242 243 241 239 240 240 238 237 236 229 222 218 212 210 217 221 223 235 246 251 259 264 263 264 264 263 261 258 259 262
242 249 248 250 254 254 258 262 258 251 244 240 241 241 240 239 239 239 237 236 236 230 223 217 211 215 224 217 212 225 237 243 254 261 263 263 264 264 261 258 261 265
244 255 249 249 257 261 263 266 264 258 248 241 239 239 239 238 237 237 237 237 234 228 223 219 215 221 226 217 212 221 228 235 248 256 260 263 265 265 263 261 264 266
244 258 251 251 259 262 262 265 265 259 250 243 241 240 239 238 238 237 236 234 229 224 223 221 218 223 224 216 216 221 221 229 243 252 260 265 266 266 265 265 267 269
239 254 252 253 259 260 258 260 261 259 254 246 243 242 240 239 238 238 236 232 226 224 224 219 214 217 216 212 217 220 217 225 240 251 260 264 264 264 265 266 268 270
230 242 247 252 257 260 260 259 257 259 256 246 243 243 242 241 241 240 238 232 225 223 223 215 211 214 213 215 220 217 215 224 237 250 260 261 262 264 265 266 268 270
219 231 240 249 255 259 260 260 258 257 253 247 245 246 244 243 242 240 238 230 220 219 219 215 218 222 218 219 220 215 218 229 238 250 261 262 262 264 264 266 269 273
207 223 235 244 250 253 256 260 259 256 252 247 247 248 245 240 238 237 235 226 218 217 216 218 230 234 222 219 217 217 225 236 242 252 265 268 268 269 267 269 272 277
202 218 230 238 242 243 247 252 252 256 256 249 246 246 242 235 232 231 228 222 218 217 217 226 240 236 221 217 218 220 229 240 246 252 263 272 276 275 270 267 271 281
193 211 221 225 230 235 238 239 245 256 262 254 248 244 238 232 229 227 223 217 214 216 224 236 238 228 219 218 220 224 233 244 248 252 266 278 279 271 268 272 277 284
188 204 211 213 221 231 236 240 248 258 264 260 250 242 237 233 228 224 221 215 212 218 227 230 224 219 220 220 222 229 240 248 248 256 273 281 273 262 271 283 286 283